Time,TemperatureF,DewpointF,PressureIn,WindDirection,WindDirectionDegrees,WindSpeedMPH,WindSpeedGustMPH,Humidity,HourlyPrecipIn,Conditions,Clouds,dailyrainin,SoftwareType,DateUTC
2013-09-10 00:03:00,64.0,62.5,29.76,South,189,0.0,1.0,95,0.00,,,0.00,Wunderground v.1.15,2013-09-10 07:03:00,
2013-09-10 00:09:00,64.0,62.5,29.76,South,189,0.0,1.0,95,0.00,,,0.00,Wunderground v.1.15,2013-09-10 07:09:00,
2013-09-10 00:14:00,63.8,62.3,29.76,South,189,0.0,0.0,95,0.00,,,0.00,Wunderground v.1.15,2013-09-10 07:14:00,
2013-09-10 00:20:00,63.7,62.5,29.76,South,189,0.0,0.0,96,0.00,,,0.00,Wunderground v.1.15,2013-09-10 07:20:00,
2013-09-10 00:26:00,63.5,62.3,29.76,South,189,0.0,0.0,96,0.00,,,0.00,Wunderground v.1.15,2013-09-10 07:26:00,
2013-09-10 00:32:00,63.5,62.3,29.76,South,189,0.0,0.0,96,0.00,,,0.00,Wunderground v.1.15,2013-09-10 07:32:00,
2013-09-10 00:37:00,63.4,62.2,29.76,South,189,0.0,0.0,96,0.00,,,0.00,Wunderground v.1.15,2013-09-10 07:37:00,
2013-09-10 00:42:00,63.5,62.6,29.76,SSW,207,0.0,1.0,97,0.00,,,0.00,Wunderground v.1.15,2013-09-10 07:42:00,
2013-09-10 00:47:00,63.5,62.3,29.75,SSW,207,0.0,1.0,96,0.00,,,0.00,Wunderground v.1.15,2013-09-10 07:47:00,
2013-09-10 00:53:00,63.5,62.3,29.76,SSW,207,0.0,0.0,96,0.00,,,0.00,Wunderground v.1.15,2013-09-10 07:53:00,
2013-09-10 00:58:00,63.3,62.1,29.76,SSW,207,0.0,0.0,96,0.00,,,0.00,Wunderground v.1.15,2013-09-10 07:58:00,
2013-09-10 01:03:00,63.1,62.2,29.76,SSW,207,0.0,0.0,97,0.00,,,0.00,Wunderground v.1.15,2013-09-10 08:03:00,
2013-09-10 01:08:00,63.0,62.1,29.76,SSW,207,0.0,0.0,97,0.00,,,0.00,Wunderground v.1.15,2013-09-10 08:08:00,
2013-09-10 01:14:00,62.9,62.0,29.76,SSW,207,0.0,0.0,97,0.00,,,0.00,Wunderground v.1.15,2013-09-10 08:14:00,
2013-09-10 01:19:00,62.8,61.9,29.76,SSW,207,0.0,0.0,97,0.00,,,0.00,Wunderground v.1.15,2013-09-10 08:19:00,
2013-09-10 01:25:00,62.8,61.9,29.76,SSW,207,0.0,1.0,97,0.00,,,0.00,Wunderground v.1.15,2013-09-10 08:25:00,
2013-09-10 01:31:00,63.0,62.1,29.76,SSW,205,1.0,1.0,97,0.00,,,0.00,Wunderground v.1.15,2013-09-10 08:31:00,
2013-09-10 01:36:00,63.0,61.8,29.76,SSW,201,1.0,1.0,96,0.00,,,0.00,Wunderground v.1.15,2013-09-10 08:36:00,
2013-09-10 01:42:00,63.2,61.1,29.76,SSW,212,1.0,2.0,93,0.00,,,0.00,Wunderground v.1.15,2013-09-10 08:42:00,
2013-09-10 01:47:00,63.4,61.0,29.76,SSW,211,1.0,2.0,92,0.00,,,0.00,Wunderground v.1.15,2013-09-10 08:47:00,
2013-09-10 01:53:00,63.3,60.9,29.76,SSW,211,0.0,0.0,92,0.00,,,0.00,Wunderground v.1.15,2013-09-10 08:53:00,
2013-09-10 01:58:00,63.2,61.1,29.76,SSW,211,0.0,0.0,93,0.00,,,0.00,Wunderground v.1.15,2013-09-10 08:58:00,
2013-09-10 02:04:00,63.2,61.1,29.76,SSW,212,0.0,1.0,93,0.00,,,0.00,Wunderground v.1.15,2013-09-10 09:04:00,
2013-09-10 02:09:00,63.3,61.2,29.75,SSW,204,1.0,1.0,93,0.00,,,0.00,Wunderground v.1.15,2013-09-10 09:09:00,
2013-09-10 02:14:00,63.3,61.2,29.75,SSW,207,1.0,2.0,93,0.00,,,0.00,Wunderground v.1.15,2013-09-10 09:14:00,
2013-09-10 02:20:00,63.4,61.3,29.75,SSW,207,1.0,1.0,93,0.00,,,0.00,Wunderground v.1.15,2013-09-10 09:20:00,
2013-09-10 02:26:00,63.3,61.2,29.75,SSW,207,0.0,1.0,93,0.00,,,0.00,Wunderground v.1.15,2013-09-10 09:26:00,
2013-09-10 02:31:00,63.3,61.5,29.75,SSW,207,0.0,0.0,94,0.00,,,0.00,Wunderground v.1.15,2013-09-10 09:31:00,
2013-09-10 02:36:00,63.2,61.4,29.75,SSW,207,0.0,0.0,94,0.00,,,0.00,Wunderground v.1.15,2013-09-10 09:36:00,
2013-09-10 02:41:00,63.0,61.5,29.75,SSW,207,0.0,1.0,95,0.00,,,0.00,Wunderground v.1.15,2013-09-10 09:41:00,
2013-09-10 02:47:00,62.9,61.4,29.75,WSW,257,0.0,1.0,95,0.00,,,0.00,Wunderground v.1.15,2013-09-10 09:47:00,
2013-09-10 02:53:00,62.8,61.0,29.75,West,266,0.0,0.0,94,0.00,,,0.00,Wunderground v.1.15,2013-09-10 09:53:00,
2013-09-10 02:58:00,62.7,61.2,29.75,West,265,0.0,0.0,95,0.00,,,0.00,Wunderground v.1.15,2013-09-10 09:58:00,
2013-09-10 03:04:00,62.6,61.1,29.75,West,265,0.0,0.0,95,0.00,,,0.00,Wunderground v.1.15,2013-09-10 10:04:00,
2013-09-10 03:09:00,62.7,61.5,29.75,West,265,0.0,0.0,96,0.00,,,0.00,Wunderground v.1.15,2013-09-10 10:09:00,
2013-09-10 03:14:00,62.7,61.2,29.75,West,265,0.0,0.0,95,0.00,,,0.00,Wunderground v.1.15,2013-09-10 10:14:00,
2013-09-10 03:20:00,62.8,61.3,29.75,West,265,0.0,0.0,95,0.00,,,0.00,Wunderground v.1.15,2013-09-10 10:20:00,
2013-09-10 03:25:00,62.8,61.3,29.75,West,265,0.0,0.0,95,0.00,,,0.00,Wunderground v.1.15,2013-09-10 10:25:00,
2013-09-10 03:30:00,62.8,61.0,29.75,West,265,0.0,0.0,94,0.00,,,0.00,Wunderground v.1.15,2013-09-10 10:30:00,
2013-09-10 03:35:00,62.7,60.9,29.75,West,266,0.0,0.0,94,0.00,,,0.00,Wunderground v.1.15,2013-09-10 10:35:00,
2013-09-10 03:40:00,62.6,60.8,29.75,WNW,285,0.0,2.0,94,0.00,,,0.00,Wunderground v.1.15,2013-09-10 10:40:00,
2013-09-10 03:45:00,62.6,60.8,29.74,WNW,300,1.0,2.0,94,0.00,,,0.00,Wunderground v.1.15,2013-09-10 10:45:00,
2013-09-10 03:50:00,62.6,60.8,29.75,WNW,292,1.0,1.0,94,0.00,,,0.00,Wunderground v.1.15,2013-09-10 10:50:00,
2013-09-10 03:56:00,62.5,60.7,29.75,WNW,292,0.0,1.0,94,0.00,,,0.00,Wunderground v.1.15,2013-09-10 10:56:00,
2013-09-10 04:01:00,62.4,60.7,29.75,WNW,298,0.0,0.0,94,0.00,,,0.00,Wunderground v.1.15,2013-09-10 11:01:00,
2013-09-10 04:06:00,62.3,60.8,29.75,WNW,298,0.0,1.0,95,0.00,,,0.00,Wunderground v.1.15,2013-09-10 11:06:00,
2013-09-10 04:12:00,62.1,60.7,29.75,WNW,298,0.0,0.0,95,0.00,,,0.00,Wunderground v.1.15,2013-09-10 11:12:00,
2013-09-10 04:17:00,61.9,60.5,29.75,WNW,298,0.0,0.0,95,0.00,,,0.00,Wunderground v.1.15,2013-09-10 11:17:00,
2013-09-10 04:23:00,61.7,60.5,29.75,WNW,298,0.0,0.0,96,0.00,,,0.00,Wunderground v.1.15,2013-09-10 11:23:00,
2013-09-10 04:29:00,61.6,60.4,29.75,West,278,0.0,1.0,96,0.00,,,0.00,Wunderground v.1.15,2013-09-10 11:29:00,
2013-09-10 04:34:00,61.6,60.4,29.75,WNW,293,0.0,2.0,96,0.00,,,0.00,Wunderground v.1.15,2013-09-10 11:34:00,
2013-09-10 04:39:00,61.7,60.5,29.75,West,268,1.0,2.0,96,0.00,,,0.01,Wunderground v.1.15,2013-09-10 11:39:00,
2013-09-10 04:44:00,61.7,60.5,29.75,WSW,252,0.0,1.0,96,0.00,,,0.01,Wunderground v.1.15,2013-09-10 11:44:00,
2013-09-10 04:50:00,61.6,60.4,29.75,WSW,252,0.0,0.0,96,0.00,,,0.01,Wunderground v.1.15,2013-09-10 11:50:00,
2013-09-10 04:55:00,61.5,60.3,29.75,WSW,252,0.0,0.0,96,0.00,,,0.01,Wunderground v.1.15,2013-09-10 11:55:00,
2013-09-10 05:00:00,61.5,60.3,29.76,WSW,252,0.0,0.0,96,0.00,,,0.01,Wunderground v.1.15,2013-09-10 12:00:00,
2013-09-10 05:05:00,61.5,60.3,29.76,WSW,252,0.0,0.0,96,0.00,,,0.01,Wunderground v.1.15,2013-09-10 12:05:00,
2013-09-10 05:10:00,61.4,60.2,29.76,WSW,252,0.0,0.0,96,0.00,,,0.01,Wunderground v.1.15,2013-09-10 12:10:00,
2013-09-10 05:15:00,61.4,60.2,29.77,WSW,252,0.0,0.0,96,0.00,,,0.01,Wunderground v.1.15,2013-09-10 12:15:00,
2013-09-10 05:21:00,61.3,60.2,29.77,NW,318,0.0,1.0,96,0.00,,,0.01,Wunderground v.1.15,2013-09-10 12:21:00,
2013-09-10 05:26:00,61.4,60.2,29.76,North,6,1.0,3.0,96,0.00,,,0.01,Wunderground v.1.15,2013-09-10 12:26:00,
2013-09-10 05:32:00,61.6,60.4,29.77,WNW,295,1.0,1.0,96,0.00,,,0.01,Wunderground v.1.15,2013-09-10 12:32:00,
2013-09-10 05:37:00,61.6,60.4,29.76,WNW,301,1.0,1.0,96,0.00,,,0.01,Wunderground v.1.15,2013-09-10 12:37:00,
2013-09-10 05:42:00,61.7,60.3,29.77,WNW,300,0.0,2.0,95,0.00,,,0.01,Wunderground v.1.15,2013-09-10 12:42:00,
2013-09-10 05:47:00,61.8,60.4,29.77,WNW,285,1.0,2.0,95,0.00,,,0.01,Wunderground v.1.15,2013-09-10 12:47:00,
2013-09-10 05:53:00,61.9,60.2,29.77,WNW,296,0.0,1.0,94,0.00,,,0.01,Wunderground v.1.15,2013-09-10 12:53:00,
2013-09-10 05:58:00,61.9,60.2,29.77,NW,321,0.0,1.0,94,0.00,,,0.01,Wunderground v.1.15,2013-09-10 12:58:00,
2013-09-10 06:03:00,61.7,60.0,29.77,NW,321,0.0,0.0,94,0.00,,,0.01,Wunderground v.1.15,2013-09-10 13:03:00,
2013-09-10 06:08:00,61.6,59.9,29.77,NW,319,0.0,0.0,94,0.00,,,0.01,Wunderground v.1.15,2013-09-10 13:08:00,
2013-09-10 06:13:00,61.4,60.0,29.77,NW,319,0.0,0.0,95,0.00,,,0.01,Wunderground v.1.15,2013-09-10 13:13:00,
2013-09-10 06:19:00,61.3,59.9,29.77,WSW,257,0.0,1.0,95,0.00,,,0.01,Wunderground v.1.15,2013-09-10 13:19:00,
2013-09-10 06:24:00,61.3,59.9,29.78,WSW,239,0.0,1.0,95,0.00,,,0.01,Wunderground v.1.15,2013-09-10 13:24:00,
2013-09-10 06:30:00,61.5,60.1,29.78,SW,236,1.0,1.0,95,0.00,,,0.01,Wunderground v.1.15,2013-09-10 13:30:00,
2013-09-10 06:35:00,62.1,60.4,29.78,SW,236,1.0,1.0,94,0.00,,,0.01,Wunderground v.1.15,2013-09-10 13:35:00,
2013-09-10 06:41:00,63.1,61.0,29.78,West,274,0.0,0.0,93,0.00,,,0.01,Wunderground v.1.15,2013-09-10 13:41:00,
2013-09-10 06:46:00,63.9,61.2,29.78,West,273,0.0,1.0,91,0.00,,,0.01,Wunderground v.1.15,2013-09-10 13:46:00,
2013-09-10 06:52:00,64.9,61.6,29.79,NNW,347,0.0,2.0,89,0.00,,,0.01,Wunderground v.1.15,2013-09-10 13:52:00,
2013-09-10 06:57:00,65.9,61.9,29.78,WSW,244,0.0,2.0,87,0.00,,,0.01,Wunderground v.1.15,2013-09-10 13:57:00,
2013-09-10 07:02:00,66.0,62.0,29.79,West,271,0.0,1.0,87,0.00,,,0.01,Wunderground v.1.15,2013-09-10 14:02:00,
2013-09-10 07:08:00,66.9,62.2,29.79,West,271,0.0,1.0,85,0.00,,,0.01,Wunderground v.1.15,2013-09-10 14:08:00,
2013-09-10 07:13:00,68.3,62.9,29.79,West,271,0.0,0.0,83,0.00,,,0.01,Wunderground v.1.15,2013-09-10 14:13:00,
2013-09-10 07:19:00,69.0,62.6,29.80,West,271,0.0,1.0,80,0.00,,,0.01,Wunderground v.1.15,2013-09-10 14:19:00,
2013-09-10 07:24:00,69.0,62.6,29.79,West,261,0.0,0.0,80,0.00,,,0.01,Wunderground v.1.15,2013-09-10 14:24:00,
2013-09-10 07:30:00,69.3,62.1,29.79,West,261,0.0,0.0,78,0.00,,,0.01,Wunderground v.1.15,2013-09-10 14:30:00,
2013-09-10 07:36:00,68.9,62.5,29.79,West,261,0.0,0.0,80,0.00,,,0.01,Wunderground v.1.15,2013-09-10 14:36:00,
2013-09-10 07:42:00,68.7,62.6,29.79,SW,218,0.0,1.0,81,0.00,,,0.01,Wunderground v.1.15,2013-09-10 14:42:00,
2013-09-10 07:47:00,68.7,62.6,29.80,SSE,165,0.0,2.0,81,0.00,,,0.01,Wunderground v.1.15,2013-09-10 14:47:00,
2013-09-10 07:53:00,68.9,62.8,29.80,SSE,159,0.0,0.0,81,0.00,,,0.01,Wunderground v.1.15,2013-09-10 14:53:00,
2013-09-10 07:58:00,69.0,62.6,29.80,SE,125,0.0,2.0,80,0.00,,,0.01,Wunderground v.1.15,2013-09-10 14:58:00,
2013-09-10 08:03:00,69.0,62.6,29.80,South,174,1.0,1.0,80,0.00,,,0.01,Wunderground v.1.15,2013-09-10 15:03:00,
2013-09-10 08:08:00,69.5,63.1,29.80,SE,134,1.0,1.0,80,0.00,,,0.01,Wunderground v.1.15,2013-09-10 15:08:00,
2013-09-10 08:13:00,69.8,63.0,29.80,SE,143,1.0,2.0,79,0.00,,,0.01,Wunderground v.1.15,2013-09-10 15:13:00,
2013-09-10 08:19:00,70.1,63.3,29.81,SE,140,1.0,3.0,79,0.00,,,0.01,Wunderground v.1.15,2013-09-10 15:19:00,
2013-09-10 08:24:00,70.0,63.5,29.81,South,190,2.0,4.0,80,0.00,,,0.01,Wunderground v.1.15,2013-09-10 15:24:00,
2013-09-10 08:29:00,69.9,63.1,29.81,South,187,2.0,5.0,79,0.00,,,0.01,Wunderground v.1.15,2013-09-10 15:29:00,
2013-09-10 08:34:00,70.1,62.9,29.82,SE,140,2.0,2.0,78,0.00,,,0.01,Wunderground v.1.15,2013-09-10 15:34:00,
2013-09-10 08:39:00,70.7,63.1,29.82,SW,222,1.0,2.0,77,0.00,,,0.01,Wunderground v.1.15,2013-09-10 15:39:00,
2013-09-10 08:45:00,70.9,63.0,29.82,SSW,194,1.0,3.0,76,0.00,,,0.01,Wunderground v.1.15,2013-09-10 15:45:00,
2013-09-10 08:50:00,71.0,63.1,29.82,SSW,203,2.0,2.0,76,0.00,,,0.01,Wunderground v.1.15,2013-09-10 15:50:00,
2013-09-10 08:56:00,71.3,63.3,29.82,SSW,208,2.0,3.0,76,0.00,,,0.01,Wunderground v.1.15,2013-09-10 15:56:00,
2013-09-10 09:01:00,71.1,63.1,29.82,SSW,195,2.0,3.0,76,0.00,,,0.01,Wunderground v.1.15,2013-09-10 16:01:00,
2013-09-10 09:06:00,70.9,62.6,29.82,SW,222,3.0,5.0,75,0.00,,,0.01,Wunderground v.1.15,2013-09-10 16:06:00,
2013-09-10 09:11:00,71.1,63.1,29.82,SW,234,2.0,3.0,76,0.00,,,0.01,Wunderground v.1.15,2013-09-10 16:11:00,
2013-09-10 09:16:00,71.6,62.9,29.82,SW,229,2.0,6.0,74,0.00,,,0.01,Wunderground v.1.15,2013-09-10 16:16:00,
2013-09-10 09:22:00,71.9,62.4,29.82,SSW,207,2.0,3.0,72,0.00,,,0.01,Wunderground v.1.15,2013-09-10 16:22:00,
2013-09-10 09:27:00,72.0,62.5,29.82,SW,214,2.0,3.0,72,0.00,,,0.01,Wunderground v.1.15,2013-09-10 16:27:00,
2013-09-10 09:32:00,73.1,62.7,29.82,ESE,111,1.0,2.0,70,0.00,,,0.01,Wunderground v.1.15,2013-09-10 16:32:00,
2013-09-10 09:37:00,73.6,62.4,29.82,SSW,196,1.0,2.0,68,0.00,,,0.01,Wunderground v.1.15,2013-09-10 16:37:00,
2013-09-10 09:42:00,74.0,61.9,29.82,SW,217,1.0,2.0,66,0.00,,,0.01,Wunderground v.1.15,2013-09-10 16:42:00,
2013-09-10 09:47:00,75.1,62.1,29.82,South,175,1.0,3.0,64,0.00,,,0.01,Wunderground v.1.15,2013-09-10 16:47:00,
2013-09-10 09:53:00,76.4,62.0,29.83,South,181,1.0,4.0,61,0.00,,,0.01,Wunderground v.1.15,2013-09-10 16:53:00,
2013-09-10 09:58:00,75.3,61.4,29.82,SSW,208,2.0,6.0,62,0.00,,,0.01,Wunderground v.1.15,2013-09-10 16:58:00,
2013-09-10 10:04:00,75.9,61.5,29.82,WSW,246,2.0,3.0,61,0.00,,,0.01,Wunderground v.1.15,2013-09-10 17:04:00,
2013-09-10 10:09:00,76.5,60.1,29.82,SSW,200,2.0,4.0,57,0.00,,,0.01,Wunderground v.1.15,2013-09-10 17:09:00,
2013-09-10 10:15:00,76.6,58.7,29.82,WSW,250,2.0,2.0,54,0.00,,,0.01,Wunderground v.1.15,2013-09-10 17:15:00,
2013-09-10 10:21:00,78.2,59.7,29.81,South,184,1.0,5.0,53,0.00,,,0.01,Wunderground v.1.15,2013-09-10 17:21:00,
2013-09-10 10:26:00,78.0,59.5,29.81,NE,38,4.0,11.0,53,0.00,,,0.01,Wunderground v.1.15,2013-09-10 17:26:00,
2013-09-10 10:31:00,78.1,59.6,29.81,ENE,70,5.0,5.0,53,0.00,,,0.01,Wunderground v.1.15,2013-09-10 17:31:00,
2013-09-10 10:36:00,79.3,58.5,29.81,NNW,347,3.0,5.0,49,0.00,,,0.01,Wunderground v.1.15,2013-09-10 17:36:00,
2013-09-10 10:42:00,81.3,58.5,29.81,WNW,293,2.0,3.0,46,0.00,,,0.01,Wunderground v.1.15,2013-09-10 17:42:00,
2013-09-10 10:47:00,82.0,57.9,29.81,WNW,298,1.0,3.0,44,0.00,,,0.01,Wunderground v.1.15,2013-09-10 17:47:00,
2013-09-10 10:53:00,81.4,58.0,29.81,WNW,288,2.0,4.0,45,0.00,,,0.01,Wunderground v.1.15,2013-09-10 17:53:00,
2013-09-10 10:59:00,78.8,57.4,29.81,NE,44,3.0,4.0,48,0.00,,,0.01,Wunderground v.1.15,2013-09-10 17:59:00,
2013-09-10 11:04:00,79.1,58.9,29.81,NE,41,3.0,5.0,50,0.00,,,0.01,Wunderground v.1.15,2013-09-10 18:04:00,
2013-09-10 11:10:00,81.0,57.0,29.81,ENE,58,2.0,2.0,44,0.00,,,0.01,Wunderground v.1.15,2013-09-10 18:10:00,
2013-09-10 11:15:00,82.0,56.6,29.80,WNW,294,2.0,3.0,42,0.00,,,0.01,Wunderground v.1.15,2013-09-10 18:15:00,
2013-09-10 11:21:00,81.6,56.9,29.80,North,2,3.0,4.0,43,0.00,,,0.01,Wunderground v.1.15,2013-09-10 18:21:00,
2013-09-10 11:26:00,82.0,57.3,29.80,West,267,3.0,5.0,43,0.00,,,0.01,Wunderground v.1.15,2013-09-10 18:26:00,
2013-09-10 11:32:00,82.8,58.0,29.80,West,280,2.0,2.0,43,0.00,,,0.01,Wunderground v.1.15,2013-09-10 18:32:00,
2013-09-10 11:37:00,82.8,59.3,29.80,WNW,286,2.0,5.0,45,0.00,,,0.01,Wunderground v.1.15,2013-09-10 18:37:00,
2013-09-10 11:42:00,82.1,58.0,29.80,WNW,300,3.0,3.0,44,0.00,,,0.01,Wunderground v.1.15,2013-09-10 18:42:00,
2013-09-10 11:47:00,82.4,58.9,29.80,West,281,3.0,5.0,45,0.00,,,0.01,Wunderground v.1.15,2013-09-10 18:47:00,
2013-09-10 11:53:00,82.4,58.9,29.80,WSW,247,2.0,4.0,45,0.00,,,0.01,Wunderground v.1.15,2013-09-10 18:53:00,
2013-09-10 11:58:00,83.1,58.3,29.79,West,259,2.0,6.0,43,0.00,,,0.01,Wunderground v.1.15,2013-09-10 18:58:00,
2013-09-10 12:03:00,83.3,57.1,29.79,SW,214,2.0,5.0,41,0.00,,,0.01,Wunderground v.1.15,2013-09-10 19:03:00,
2013-09-10 12:08:00,84.3,55.9,29.79,North,349,2.0,5.0,38,0.00,,,0.01,Wunderground v.1.15,2013-09-10 19:08:00,
2013-09-10 12:14:00,85.2,58.2,29.79,West,268,2.0,2.0,40,0.00,,,0.01,Wunderground v.1.15,2013-09-10 19:14:00,
2013-09-10 12:20:00,85.8,58.7,29.79,SW,233,1.0,4.0,40,0.00,,,0.01,Wunderground v.1.15,2013-09-10 19:20:00,
2013-09-10 12:25:00,84.8,57.8,29.79,SW,229,2.0,6.0,40,0.00,,,0.01,Wunderground v.1.15,2013-09-10 19:25:00,
2013-09-10 12:31:00,85.4,56.2,29.79,NNE,16,3.0,6.0,37,0.00,,,0.01,Wunderground v.1.15,2013-09-10 19:31:00,
2013-09-10 12:36:00,83.5,55.9,29.79,North,7,3.0,7.0,39,0.00,,,0.01,Wunderground v.1.15,2013-09-10 19:36:00,
2013-09-10 12:41:00,84.9,55.7,29.79,WNW,295,2.0,4.0,37,0.00,,,0.01,Wunderground v.1.15,2013-09-10 19:41:00,
2013-09-10 12:46:00,86.0,57.4,29.78,North,350,1.0,7.0,38,0.00,,,0.01,Wunderground v.1.15,2013-09-10 19:46:00,
2013-09-10 12:51:00,86.4,53.1,29.78,NE,36,3.0,5.0,32,0.00,,,0.01,Wunderground v.1.15,2013-09-10 19:51:00,
2013-09-10 12:57:00,86.3,52.1,29.78,North,9,4.0,6.0,31,0.00,,,0.01,Wunderground v.1.15,2013-09-10 19:57:00,
2013-09-10 13:02:00,86.8,52.5,29.78,NNW,342,3.0,6.0,31,0.00,,,0.01,Wunderground v.1.15,2013-09-10 20:02:00,
2013-09-10 13:08:00,86.6,51.5,29.78,North,353,4.0,9.0,30,0.00,,,0.01,Wunderground v.1.15,2013-09-10 20:08:00,
2013-09-10 13:14:00,86.6,51.5,29.78,WNW,295,3.0,4.0,30,0.00,,,0.01,Wunderground v.1.15,2013-09-10 20:14:00,
2013-09-10 13:19:00,87.2,51.1,29.78,ENE,71,2.0,5.0,29,0.00,,,0.01,Wunderground v.1.15,2013-09-10 20:19:00,
2013-09-10 13:25:00,86.3,51.2,29.78,NNE,14,3.0,6.0,30,0.00,,,0.01,Wunderground v.1.15,2013-09-10 20:25:00,
2013-09-10 13:30:00,85.4,51.3,29.78,NE,42,4.0,5.0,31,0.00,,,0.01,Wunderground v.1.15,2013-09-10 20:30:00,
2013-09-10 13:35:00,85.4,51.3,29.77,NE,56,4.0,7.0,31,0.00,,,0.01,Wunderground v.1.15,2013-09-10 20:35:00,
2013-09-10 13:41:00,84.8,52.5,29.78,North,349,5.0,10.0,33,0.00,,,0.01,Wunderground v.1.15,2013-09-10 20:41:00,
2013-09-10 13:47:00,84.6,53.1,29.77,NE,36,5.0,10.0,34,0.00,,,0.01,Wunderground v.1.15,2013-09-10 20:47:00,
2013-09-10 13:53:00,84.8,53.3,29.77,NE,35,5.0,11.0,34,0.00,,,0.01,Wunderground v.1.15,2013-09-10 20:53:00,
2013-09-10 13:58:00,84.5,53.0,29.77,ENE,67,5.0,11.0,34,0.00,,,0.01,Wunderground v.1.15,2013-09-10 20:58:00,
2013-09-10 14:04:00,84.3,52.1,29.77,West,271,6.0,7.0,33,0.00,,,0.01,Wunderground v.1.15,2013-09-10 21:04:00,
2013-09-10 14:09:00,83.6,53.1,29.77,SSE,150,6.0,8.0,35,0.00,,,0.01,Wunderground v.1.15,2013-09-10 21:09:00,
2013-09-10 14:14:00,83.9,53.3,29.77,SW,223,5.0,6.0,35,0.00,,,0.01,Wunderground v.1.15,2013-09-10 21:14:00,
2013-09-10 14:20:00,83.8,54.0,29.76,ENE,71,5.0,7.0,36,0.00,,,0.01,Wunderground v.1.15,2013-09-10 21:20:00,
2013-09-10 14:26:00,83.6,53.1,29.76,SW,226,5.0,7.0,35,0.00,,,0.01,Wunderground v.1.15,2013-09-10 21:26:00,
2013-09-10 14:31:00,83.4,53.6,29.76,SW,227,4.0,7.0,36,0.00,,,0.01,Wunderground v.1.15,2013-09-10 21:31:00,
2013-09-10 14:37:00,82.8,53.1,29.76,SW,233,4.0,7.0,36,0.00,,,0.01,Wunderground v.1.15,2013-09-10 21:37:00,
2013-09-10 14:42:00,81.7,51.4,29.76,WSW,252,5.0,8.0,35,0.00,,,0.01,Wunderground v.1.15,2013-09-10 21:42:00,
2013-09-10 14:48:00,81.0,51.5,29.76,WNW,289,5.0,8.0,36,0.00,,,0.01,Wunderground v.1.15,2013-09-10 21:48:00,
2013-09-10 14:53:00,81.5,52.0,29.75,East,94,5.0,9.0,36,0.00,,,0.01,Wunderground v.1.15,2013-09-10 21:53:00,
2013-09-10 14:59:00,82.0,51.6,29.75,ENE,57,4.0,9.0,35,0.00,,,0.01,Wunderground v.1.15,2013-09-10 21:59:00,
2013-09-10 15:04:00,82.5,51.3,29.75,SSW,193,4.0,7.0,34,0.00,,,0.01,Wunderground v.1.15,2013-09-10 22:04:00,
2013-09-10 15:09:00,83.1,52.6,29.75,SSW,192,4.0,7.0,35,0.00,,,0.01,Wunderground v.1.15,2013-09-10 22:09:00,
2013-09-10 15:15:00,83.2,51.9,29.75,SSE,166,4.0,6.0,34,0.00,,,0.01,Wunderground v.1.15,2013-09-10 22:15:00,
2013-09-10 15:21:00,83.0,52.5,29.75,WSW,243,4.0,8.0,35,0.00,,,0.01,Wunderground v.1.15,2013-09-10 22:21:00,
2013-09-10 15:26:00,82.7,52.3,29.75,SSW,200,5.0,8.0,35,0.00,,,0.01,Wunderground v.1.15,2013-09-10 22:26:00,
2013-09-10 15:31:00,81.5,52.0,29.75,WNW,286,5.0,7.0,36,0.00,,,0.01,Wunderground v.1.15,2013-09-10 22:31:00,
2013-09-10 15:36:00,81.9,53.1,29.75,SW,217,5.0,7.0,37,0.00,,,0.01,Wunderground v.1.15,2013-09-10 22:36:00,
2013-09-10 15:41:00,82.5,52.9,29.75,SW,226,4.0,4.0,36,0.00,,,0.01,Wunderground v.1.15,2013-09-10 22:41:00,
2013-09-10 15:46:00,82.1,53.2,29.75,NW,309,5.0,10.0,37,0.00,,,0.01,Wunderground v.1.15,2013-09-10 22:46:00,
2013-09-10 15:51:00,80.9,53.6,29.75,WNW,295,7.0,9.0,39,0.00,,,0.01,Wunderground v.1.15,2013-09-10 22:51:00,
2013-09-10 15:56:00,80.6,54.7,29.75,NNW,342,7.0,9.0,41,0.00,,,0.01,Wunderground v.1.15,2013-09-10 22:56:00,
2013-09-10 16:01:00,80.2,55.7,29.75,WNW,286,7.0,8.0,43,0.00,,,0.01,Wunderground v.1.15,2013-09-10 23:01:00,
2013-09-10 16:07:00,79.2,55.4,29.76,SW,220,7.0,16.0,44,0.00,,,0.01,Wunderground v.1.15,2013-09-10 23:07:00,
2013-09-10 16:12:00,79.1,56.5,29.76,NW,312,7.0,9.0,46,0.00,,,0.01,Wunderground v.1.15,2013-09-10 23:12:00,
2013-09-10 16:18:00,77.7,57.0,29.76,SSW,205,8.0,10.0,49,0.00,,,0.01,Wunderground v.1.15,2013-09-10 23:18:00,
2013-09-10 16:23:00,77.6,56.9,29.76,NW,317,8.0,9.0,49,0.00,,,0.01,Wunderground v.1.15,2013-09-10 23:23:00,
2013-09-10 16:28:00,77.9,57.8,29.76,WNW,285,7.0,12.0,50,0.00,,,0.01,Wunderground v.1.15,2013-09-10 23:28:00,
2013-09-10 16:33:00,78.0,57.9,29.76,East,83,7.0,8.0,50,0.00,,,0.01,Wunderground v.1.15,2013-09-10 23:33:00,
2013-09-10 16:39:00,78.0,57.9,29.76,WNW,289,7.0,10.0,50,0.00,,,0.01,Wunderground v.1.15,2013-09-10 23:39:00,
2013-09-10 16:44:00,77.1,57.6,29.76,WSW,244,7.0,9.0,51,0.00,,,0.01,Wunderground v.1.15,2013-09-10 23:44:00,
2013-09-10 16:50:00,76.4,58.0,29.76,WSW,243,5.0,5.0,53,0.00,,,0.01,Wunderground v.1.15,2013-09-10 23:50:00,
2013-09-10 16:56:00,76.0,58.2,29.76,West,277,4.0,6.0,54,0.00,,,0.01,Wunderground v.1.15,2013-09-10 23:56:00,
2013-09-10 17:01:00,75.8,57.4,29.76,WSW,245,5.0,8.0,53,0.00,,,0.01,Wunderground v.1.15,2013-09-11 00:01:00,
2013-09-10 17:07:00,75.5,57.2,29.76,WNW,300,6.0,10.0,53,0.00,,,0.01,Wunderground v.1.15,2013-09-11 00:07:00,
2013-09-10 17:13:00,75.4,57.6,29.76,West,276,6.0,7.0,54,0.00,,,0.01,Wunderground v.1.15,2013-09-11 00:13:00,
2013-09-10 17:19:00,75.3,57.5,29.76,WNW,290,4.0,7.0,54,0.00,,,0.01,Wunderground v.1.15,2013-09-11 00:19:00,
2013-09-10 17:24:00,75.3,57.5,29.76,West,264,3.0,5.0,54,0.00,,,0.01,Wunderground v.1.15,2013-09-11 00:24:00,
2013-09-10 17:30:00,75.7,56.3,29.76,NW,315,4.0,4.0,51,0.00,,,0.01,Wunderground v.1.15,2013-09-11 00:30:00,
2013-09-10 17:35:00,76.3,55.7,29.76,NW,309,5.0,7.0,49,0.00,,,0.01,Wunderground v.1.15,2013-09-11 00:35:00,
2013-09-10 17:40:00,76.6,56.0,29.76,West,278,4.0,4.0,49,0.00,,,0.01,Wunderground v.1.15,2013-09-11 00:40:00,
2013-09-10 17:46:00,76.2,57.3,29.76,North,349,5.0,11.0,52,0.00,,,0.01,Wunderground v.1.15,2013-09-11 00:46:00,
2013-09-10 17:52:00,75.9,57.5,29.76,NNW,342,5.0,6.0,53,0.00,,,0.01,Wunderground v.1.15,2013-09-11 00:52:00,
2013-09-10 17:57:00,75.6,57.3,29.76,NNW,344,5.0,6.0,53,0.00,,,0.01,Wunderground v.1.15,2013-09-11 00:57:00,
2013-09-10 18:03:00,75.3,57.0,29.77,NW,326,5.0,7.0,53,0.00,,,0.01,Wunderground v.1.15,2013-09-11 01:03:00,
2013-09-10 18:08:00,74.8,57.0,29.76,NW,322,5.0,7.0,54,0.00,,,0.01,Wunderground v.1.15,2013-09-11 01:08:00,
2013-09-10 18:13:00,74.6,56.9,29.77,North,354,4.0,6.0,54,0.00,,,0.01,Wunderground v.1.15,2013-09-11 01:13:00,
2013-09-10 18:19:00,74.2,56.5,29.77,NNW,335,4.0,7.0,54,0.00,,,0.01,Wunderground v.1.15,2013-09-11 01:19:00,
2013-09-10 18:24:00,73.9,56.7,29.77,NNW,330,4.0,5.0,55,0.00,,,0.01,Wunderground v.1.15,2013-09-11 01:24:00,
2013-09-10 18:29:00,73.5,56.8,29.77,NW,321,4.0,5.0,56,0.00,,,0.01,Wunderground v.1.15,2013-09-11 01:29:00,
2013-09-10 18:34:00,73.2,57.1,29.78,NW,320,3.0,4.0,57,0.00,,,0.01,Wunderground v.1.15,2013-09-11 01:34:00,
2013-09-10 18:39:00,73.0,57.3,29.78,NW,316,3.0,4.0,58,0.00,,,0.01,Wunderground v.1.15,2013-09-11 01:39:00,
2013-09-10 18:44:00,72.7,57.1,29.78,NNW,339,3.0,7.0,58,0.00,,,0.01,Wunderground v.1.15,2013-09-11 01:44:00,
2013-09-10 18:50:00,72.4,57.3,29.78,NW,320,3.0,3.0,59,0.00,,,0.01,Wunderground v.1.15,2013-09-11 01:50:00,
2013-09-10 18:56:00,72.2,57.1,29.78,NW,305,4.0,5.0,59,0.00,,,0.01,Wunderground v.1.15,2013-09-11 01:56:00,
2013-09-10 19:01:00,72.1,57.0,29.78,NW,322,3.0,4.0,59,0.00,,,0.01,Wunderground v.1.15,2013-09-11 02:01:00,
2013-09-10 19:06:00,71.9,57.3,29.78,NW,307,3.0,4.0,60,0.00,,,0.01,Wunderground v.1.15,2013-09-11 02:06:00,
2013-09-10 19:11:00,71.7,57.1,29.78,NW,324,3.0,4.0,60,0.00,,,0.01,Wunderground v.1.15,2013-09-11 02:11:00,
2013-09-10 19:16:00,71.4,57.2,29.78,NW,309,3.0,4.0,61,0.00,,,0.01,Wunderground v.1.15,2013-09-11 02:16:00,
2013-09-10 19:22:00,71.2,57.1,29.78,West,278,2.0,4.0,61,0.00,,,0.01,Wunderground v.1.15,2013-09-11 02:22:00,
2013-09-10 19:28:00,71.0,57.3,29.78,NW,322,2.0,4.0,62,0.00,,,0.01,Wunderground v.1.15,2013-09-11 02:28:00,
2013-09-10 19:33:00,70.9,57.2,29.79,WNW,295,3.0,5.0,62,0.00,,,0.01,Wunderground v.1.15,2013-09-11 02:33:00,
2013-09-10 19:39:00,70.8,57.1,29.79,NW,320,3.0,5.0,62,0.00,,,0.01,Wunderground v.1.15,2013-09-11 02:39:00,
2013-09-10 19:44:00,70.7,57.0,29.79,NW,323,3.0,5.0,62,0.00,,,0.01,Wunderground v.1.15,2013-09-11 02:44:00,
2013-09-10 19:50:00,70.5,57.3,29.79,NW,319,3.0,3.0,63,0.00,,,0.01,Wunderground v.1.15,2013-09-11 02:50:00,
2013-09-10 19:56:00,70.3,57.1,29.80,WNW,300,3.0,5.0,63,0.00,,,0.01,Wunderground v.1.15,2013-09-11 02:56:00,
2013-09-10 20:01:00,70.2,57.0,29.80,NNW,332,3.0,3.0,63,0.00,,,0.01,Wunderground v.1.15,2013-09-11 03:01:00,
2013-09-10 20:07:00,70.1,56.9,29.80,NW,311,3.0,4.0,63,0.00,,,0.01,Wunderground v.1.15,2013-09-11 03:07:00,
2013-09-10 20:13:00,69.9,56.7,29.80,NW,306,3.0,3.0,63,0.00,,,0.01,Wunderground v.1.15,2013-09-11 03:13:00,
2013-09-10 20:18:00,69.8,56.6,29.80,NNW,345,2.0,4.0,63,0.00,,,0.01,Wunderground v.1.15,2013-09-11 03:18:00,
2013-09-10 20:23:00,69.8,56.6,29.81,NW,326,2.0,2.0,63,0.00,,,0.01,Wunderground v.1.15,2013-09-11 03:23:00,
2013-09-10 20:29:00,69.6,56.9,29.81,NW,320,2.0,2.0,64,0.00,,,0.01,Wunderground v.1.15,2013-09-11 03:29:00,
2013-09-10 20:34:00,69.5,56.8,29.81,West,269,1.0,3.0,64,0.00,,,0.01,Wunderground v.1.15,2013-09-11 03:34:00,
2013-09-10 20:40:00,69.6,56.9,29.81,NW,322,2.0,3.0,64,0.00,,,0.01,Wunderground v.1.15,2013-09-11 03:40:00,
2013-09-10 20:45:00,69.5,56.8,29.82,NNW,328,3.0,5.0,64,0.00,,,0.01,Wunderground v.1.15,2013-09-11 03:45:00,
2013-09-10 20:51:00,69.5,56.8,29.82,NW,304,3.0,3.0,64,0.00,,,0.01,Wunderground v.1.15,2013-09-11 03:51:00,
2013-09-10 20:56:00,69.5,56.8,29.82,NNW,335,3.0,3.0,64,0.00,,,0.01,Wunderground v.1.15,2013-09-11 03:56:00,
2013-09-10 21:01:00,69.5,56.8,29.82,WNW,297,3.0,3.0,64,0.00,,,0.01,Wunderground v.1.15,2013-09-11 04:01:00,
2013-09-10 21:02:00,69.5,56.8,29.82,NW,325,3.0,3.0,64,0.00,,,0.01,Wunderground v.1.15,2013-09-11 04:02:00,
2013-09-10 21:06:00,69.5,56.8,29.82,West,280,2.0,3.0,64,0.00,,,0.01,Wunderground v.1.15,2013-09-11 04:06:00,
2013-09-10 21:08:00,69.4,56.7,29.82,NNW,328,2.0,3.0,64,0.00,,,0.01,Wunderground v.1.15,2013-09-11 04:08:00,
2013-09-10 21:13:00,69.3,56.6,29.82,WNW,291,2.0,3.0,64,0.00,,,0.01,Wunderground v.1.15,2013-09-11 04:13:00,
2013-09-10 21:18:00,69.1,56.4,29.83,WNW,290,2.0,3.0,64,0.00,,,0.01,Wunderground v.1.15,2013-09-11 04:18:00,
2013-09-10 21:23:00,69.0,56.3,29.83,NW,307,1.0,2.0,64,0.00,,,0.01,Wunderground v.1.15,2013-09-11 04:23:00,
2013-09-10 21:28:00,69.0,56.3,29.83,NW,326,1.0,2.0,64,0.00,,,0.01,Wunderground v.1.15,2013-09-11 04:28:00,
2013-09-10 21:30:00,69.0,56.3,29.83,NW,311,1.0,1.0,64,0.00,,,0.01,Wunderground v.1.15,2013-09-11 04:30:00,
2013-09-10 21:35:00,68.9,56.2,29.83,WSW,255,1.0,2.0,64,0.00,,,0.01,Wunderground v.1.15,2013-09-11 04:35:00,
2013-09-10 21:40:00,68.6,56.4,29.83,West,281,1.0,3.0,65,0.00,,,0.01,Wunderground v.1.15,2013-09-11 04:40:00,
2013-09-10 21:45:00,68.4,56.2,29.83,WNW,286,1.0,3.0,65,0.00,,,0.01,Wunderground v.1.15,2013-09-11 04:45:00,
2013-09-10 21:51:00,68.2,56.4,29.83,WNW,291,1.0,2.0,66,0.00,,,0.01,Wunderground v.1.15,2013-09-11 04:51:00,
2013-09-10 21:56:00,68.0,56.2,29.83,West,271,1.0,2.0,66,0.00,,,0.01,Wunderground v.1.15,2013-09-11 04:56:00,
2013-09-10 22:01:00,67.9,56.1,29.83,West,271,1.0,2.0,66,0.00,,,0.01,Wunderground v.1.15,2013-09-11 05:01:00,
2013-09-10 22:06:00,67.8,56.0,29.83,WNW,289,1.0,2.0,66,0.00,,,0.01,Wunderground v.1.15,2013-09-11 05:06:00,
2013-09-10 22:11:00,67.7,56.3,29.83,NW,318,1.0,1.0,67,0.00,,,0.01,Wunderground v.1.15,2013-09-11 05:11:00,
2013-09-10 22:17:00,67.6,56.2,29.83,SW,228,1.0,2.0,67,0.00,,,0.01,Wunderground v.1.15,2013-09-11 05:17:00,
2013-09-10 22:23:00,67.5,56.2,29.83,West,279,2.0,3.0,67,0.00,,,0.01,Wunderground v.1.15,2013-09-11 05:23:00,
2013-09-10 22:28:00,67.5,56.2,29.83,WNW,284,2.0,4.0,67,0.00,,,0.01,Wunderground v.1.15,2013-09-11 05:28:00,
2013-09-10 22:33:00,67.4,56.1,29.83,WNW,301,2.0,3.0,67,0.00,,,0.01,Wunderground v.1.15,2013-09-11 05:33:00,
2013-09-10 22:39:00,66.9,56.4,29.83,WNW,292,3.0,4.0,69,0.00,,,0.01,Wunderground v.1.15,2013-09-11 05:39:00,
2013-09-10 22:44:00,66.5,56.4,29.83,WNW,291,3.0,4.0,70,0.00,,,0.01,Wunderground v.1.15,2013-09-11 05:44:00,
2013-09-10 22:50:00,66.2,56.5,29.83,NW,314,2.0,2.0,71,0.00,,,0.01,Wunderground v.1.15,2013-09-11 05:50:00,
2013-09-10 22:56:00,66.0,56.3,29.83,West,269,2.0,4.0,71,0.00,,,0.01,Wunderground v.1.15,2013-09-11 05:56:00,
2013-09-10 23:02:00,65.8,56.5,29.83,West,271,2.0,3.0,72,0.00,,,0.01,Wunderground v.1.15,2013-09-11 06:02:00,
2013-09-10 23:07:00,65.1,57.0,29.84,WNW,282,2.0,3.0,75,0.00,,,0.01,Wunderground v.1.15,2013-09-11 06:07:00,
2013-09-10 23:12:00,64.5,56.8,29.83,WNW,285,1.0,1.0,76,0.00,,,0.01,Wunderground v.1.15,2013-09-11 06:12:00,
2013-09-10 23:17:00,63.9,56.5,29.83,West,275,1.0,2.0,77,0.00,,,0.01,Wunderground v.1.15,2013-09-11 06:17:00,
2013-09-10 23:23:00,63.5,56.9,29.83,West,277,1.0,1.0,79,0.00,,,0.01,Wunderground v.1.15,2013-09-11 06:23:00,
2013-09-10 23:28:00,63.2,56.6,29.83,West,277,1.0,1.0,79,0.00,,,0.01,Wunderground v.1.15,2013-09-11 06:28:00,
2013-09-10 23:34:00,62.9,56.6,29.83,West,277,0.0,0.0,80,0.00,,,0.01,Wunderground v.1.15,2013-09-11 06:34:00,
2013-09-10 23:40:00,62.5,56.6,29.84,West,277,0.0,0.0,81,0.00,,,0.01,Wunderground v.1.15,2013-09-11 06:40:00,
2013-09-10 23:45:00,62.6,56.7,29.83,West,277,0.0,0.0,81,0.00,,,0.01,Wunderground v.1.15,2013-09-11 06:45:00,
2013-09-10 23:51:00,62.7,56.4,29.83,West,277,0.0,0.0,80,0.00,,,0.01,Wunderground v.1.15,2013-09-11 06:51:00,
2013-09-10 23:56:00,62.8,56.2,29.83,SSE,158,0.0,0.0,79,0.00,,,0.01,Wunderground v.1.15,2013-09-11 06:56:00,